STARLINK-1333 (45580 NORAD) Tracking and Keplerian Element Data

This shows tracking and keplerian element data for the satellite.

Feedback or suggestion? Click here.




ElementValue
Catalog45580
NameSTARLINK-1333
Epoch Orbit626
Epoch Day149.16667824
Epoch Year2020
RAAN224.9513
Inclination52.9971
Eccentricity0.0001468
Argument of Perigee86.3598
Mean Anonmoly112.5052
Mean Motion15.62702301
Decay Rate0.00045913
L11 45580U 20025BB 20149.16667824 .00045913 00000-0 50540-3 0 9996
L22 45580 52.9971 224.9513 0001468 86.3598 112.5052 15.62702301 6268

Live tracking and technical data element details for STARLINK-1333 (NORAD 45580). STARLINK-1333 can be tracked NOW for your location showing map with azimuth and elevation plus other details from your city location.

Track the satellite on the map from your city or location and see movement details for azimuth, elevation, latitude, longitude, range, height, and movement on the map or in text.







IsCatalogInMostPopularTable: catalog: 45580, numindb: 9
Update: records affected: 1



GetName: 45580 STARLINK-1333

Hit Count: updated at: Sat, 30 May 2020 14:26:25 GMT